Home   Weather   Belfast   Past weeks

Flag for United Kingdom Past Weather in Belfast, Northern Ireland, United Kingdom — Yesterday and Last 2 Weeks

Now
48 °F

Mostly cloudy.


Feels Like: 46 °F
Forecast: 45 / 51 °F
Wind: 5 mph from Southwest

Location: Belfast / Aldergrove Airport

Current Time: Jan 17, 2017 at 5:17:21 am

Latest Report: Jan 17, 2017 at 4:50 am


Visibility: 4 mi

Pressure: 30.45 "Hg

Humidity: 100%

Dew Point: 48 °F

Location of BelfastLocation

Past Weather in Belfast — Graph

°F

Belfast Temperature Yesterday

Maximum temperature yesterday: 50 °F (at 2:50 pm)
Minimum temperature yesterday: 46 °F (at 1:20 am)
Average temperature yesterday: 48 °F

High & Low Weather Summary for the Past Weeks

 TemperatureHumidityPressure
High52 °F (Jan 10, 11:50 pm)100% (Jan 2, 8:20 am)30.54 "Hg (Jan 2, 8:20 am)
Low27 °F (Jan 2, 5:20 am)65% (Jan 13, 9:50 am)29.45 "Hg (Jan 12, 5:50 pm)
Average42 °F94%30.16 "Hg
* Reported Jan 2 3:20 am — Jan 17 3:50 am, Belfast, Weather by CustomWeather, © 2017

Note: Actual official high and low records may vary slightly from our data, if they occured in-between our weather recording intervals... More about our weather records

Advertising

Belfast Weather History for the Previous 24 Hours

Scroll right to see more
 ConditionsComfort  
Time TempWeatherWind HumidityBarometerVisibility
3:50 am
Tue, Jan 17
48 °FFog.8 mph100%30.45 "Hg3 mi
3:20 am48 °FFog.7 mph100%30.45 "Hg2 mi
2:50 am48 °FMostly cloudy.10 mph100%30.45 "Hg4 mi
2:20 am48 °FPassing clouds.10 mph100%30.42 "Hg5 mi
1:50 am48 °FPartly cloudy.9 mph100%30.42 "Hg4 mi
1:20 am48 °FPassing clouds.9 mph100%30.42 "Hg4 mi
12:50 am48 °FFog.8 mph100%30.42 "Hg3 mi
12:20 am48 °FFog.7 mph100%30.42 "Hg3 mi
11:50 pm
Mon, Jan 16
48 °FFog.7 mph100%30.42 "Hg2 mi
11:20 pm48 °FFog.7 mph100%30.42 "Hg2 mi
10:50 pm48 °FFog.7 mph100%30.42 "Hg2 mi
9:50 pm48 °FFog.7 mph100%30.42 "Hg3 mi
9:20 pm48 °FFog.8 mph100%30.42 "Hg3 mi
8:50 pm48 °FPassing clouds.9 mph100%30.42 "Hg4 mi
8:20 pm48 °FFog.7 mph100%30.42 "Hg2 mi
7:50 pm48 °FFog.7 mph100%30.39 "Hg1 mi
7:20 pm48 °FFog.7 mph100%30.39 "Hg1 mi
6:50 pm48 °FDrizzle. Fog.7 mph100%30.39 "Hg2 mi
6:20 pm48 °FFog.7 mph100%30.39 "Hg2 mi
5:50 pm48 °FPassing clouds.6 mph100%30.39 "Hg4 mi
5:20 pm48 °FPassing clouds.6 mph100%30.39 "Hg5 mi
4:50 pm48 °FPartly cloudy.7 mph100%30.39 "HgN/A
4:20 pm48 °FBroken clouds.7 mph100%30.36 "HgN/A
3:50 pm48 °FPartly sunny.5 mph100%30.36 "HgN/A
3:20 pm48 °FPartly sunny.5 mph100%30.36 "HgN/A
2:50 pm50 °FPartly sunny.5 mph100%30.36 "HgN/A
2:20 pm48 °FPartly sunny.3 mph100%30.36 "HgN/A
1:50 pm48 °FPartly sunny.5 mph100%30.36 "HgN/A
1:20 pm48 °FPartly sunny.7 mph100%30.36 "HgN/A
12:50 pm48 °FPartly sunny.8 mph100%30.36 "HgN/A
12:20 pm48 °FBroken clouds.7 mph100%30.36 "HgN/A
11:50 am48 °FBroken clouds.8 mph100%30.36 "HgN/A
11:20 am48 °FPartly sunny.9 mph100%30.36 "HgN/A
10:50 am48 °FBroken clouds.7 mph100%30.39 "HgN/A
10:20 am48 °FBroken clouds.6 mph100%30.36 "HgN/A
9:50 am46 °FPartly sunny.6 mph100%30.36 "HgN/A
9:20 am46 °FPartly sunny.6 mph100%30.36 "HgN/A
8:50 am46 °FLight rain. Partly sunny.7 mph100%30.36 "Hg6 mi
8:20 am46 °FPassing clouds.7 mph100%30.36 "HgN/A
7:50 am46 °FPartly cloudy.7 mph100%30.36 "HgN/A
7:20 am46 °FPartly cloudy.7 mph100%30.36 "HgN/A
6:50 am46 °FMostly cloudy.5 mph100%30.36 "HgN/A
6:20 am46 °FMostly cloudy.3 mph100%30.36 "HgN/A
5:50 am46 °FMostly cloudy.6 mph100%30.33 "HgN/A
5:20 am46 °FMostly cloudy.6 mph100%30.33 "HgN/A
Weather by CustomWeather, © 2017

See weather overviewHow to use our weather pages